FW1747 Weather Reports


Display with metric or nautical units.
time (UTC)temp
F
wind
direction
speed
MPH
gust
MPH
rain 1hr
in
rain 24hr
in
rain mn
in
humidity
%
barometer
mb
20260503214547 83 294 0.0 3.0 0.00 0.00 0.00 40 1009.2
20260503213046 82 4 0.0 1.0 0.00 0.00 0.00 40 1009.4
20260503211541 82 354 0.0 1.0 0.00 0.00 0.00 43 1009.6
20260503210037 81 308 0.0 1.0 0.00 0.00 0.00 45 1009.7
20260503204534 80 8 0.0 0.0 0.00 0.00 0.00 46 1009.9
20260503203035 79 1 0.0 1.0 0.00 0.00 0.00 49 1010.2
20260503201528 78 251 0.0 1.0 0.00 0.00 0.00 48 1010.3
20260503200027 77 19 0.0 1.0 0.00 0.00 0.00 49 1010.5
20260503194521 76 33 0.0 0.0 0.00 0.00 0.00 52 1010.7
20260503193033 75 348 0.0 0.0 0.00 0.00 0.00 53 1010.9
20260503191532 74 358 0.0 0.0 0.00 0.00 0.00 56 1011.0
20260503190023 73 359 0.0 0.0 0.00 0.00 0.00 56 1011.2
20260503184507 71 18 0.0 0.0 0.00 0.00 0.00 59 1011.3
20260503183005 72 325 0.0 0.0 0.00 0.00 0.00 58 1011.5
20260503181501 70 6 0.0 0.0 0.00 0.00 0.00 63 1011.6
20260503174556 69 304 0.0 0.0 0.00 0.00 0.00 65 1011.8
20260503173055 68 1 0.0 1.0 0.00 0.00 0.00 68 1011.9
20260503171551 67 18 0.0 1.0 0.00 0.00 0.00 70 1011.9
20260503100103 56 352 0.0 0.0 0.00 0.00 0.00 83 1012.2
20260503081545 57 352 0.0 0.0 0.00 0.00 0.00 83 1012.5
20260503071538 57 352 0.0 0.0 0.00 0.00 0.00 81 1012.9
20260503054551 58 352 0.0 0.0 0.00 0.00 0.00 79 1012.8
20260503053032 59 352 0.0 0.0 0.00 0.00 0.00 79 1012.8
20260503051532 59 352 0.0 0.0 0.00 0.00 0.00 77 1013.0
20260503050034 59 352 0.0 0.0 0.00 0.00 0.00 77 1013.1
20260503044539 59 352 0.0 0.0 0.00 0.00 0.00 76 1013.0
20260503043041 60 352 0.0 0.0 0.00 0.00 0.00 75 1012.9
20260503041530 61 352 0.0 0.0 0.00 0.00 0.00 74 1012.8
20260503040029 61 1 0.0 0.0 0.00 0.00 0.00 75 1012.6
20260503034529 61 1 0.0 0.0 0.00 0.00 0.00 74 1012.5
20260503033028 62 18 0.0 0.0 0.00 0.00 0.00 73 1012.3
20260503031527 62 311 0.0 1.0 0.00 0.00 0.00 73 1011.9
20260503030034 62 359 0.0 0.0 0.00 0.00 0.00 72 1012.1
20260503024526 62 208 0.0 0.0 0.00 0.00 0.00 72 1011.5
20260503023025 62 290 0.0 0.0 0.00 0.00 0.00 71 1011.7
20260503021524 62 266 0.0 0.0 0.00 0.00 0.00 71 1012.0
20260503020022 63 113 0.0 0.0 0.00 0.00 0.00 70 1012.4
20260503014521 63 113 0.0 0.0 0.00 0.00 0.00 70 1012.9
20260503013033 63 73 0.0 0.0 0.00 0.00 0.00 69 1013.2
20260503011520 63 77 0.0 0.0 0.00 0.00 0.00 68 1013.2
20260503010022 64 49 0.0 0.0 0.00 0.00 0.00 67 1012.8
20260503004519 65 103 0.0 0.0 0.00 0.00 0.00 66 1012.6
20260503003018 64 290 0.0 0.0 0.00 0.00 0.00 65 1012.5
20260503001517 65 276 0.0 0.0 0.00 0.00 0.00 64 1012.4
20260503000017 65 338 0.0 0.0 0.00 0.00 0.00 65 1012.3
20260502234523 65 353 0.0 1.0 0.00 0.00 0.00 63 1012.4
20260502233027 64 359 0.0 0.0 0.00 0.00 0.00 65 1012.4
20260502231611 64 314 0.0 0.0 0.00 0.00 0.00 66 1012.6
20260502230009 63 342 0.0 0.0 0.00 0.00 0.00 66 1012.9
20260502224505 63 4 0.0 0.0 0.00 0.00 0.00 67 1013.2
20260502223002 62 328 0.0 0.0 0.00 0.00 0.00 68 1013.5
20260502221600 62 1 0.0 0.0 0.00 0.00 0.00 67 1013.7
20260502220058 62 41 0.0 1.0 0.00 0.00 0.00 69 1013.8